Weather History for KOGD - February, 2014

Change the Weather History Date:

Friday, February 21, 2014

  Actual Average Record
Temperature  
Mean Temperature 39 °F -  
Max Temperature 46 °F 45 °F 65 °F (1958)
Min Temperature 32 °F 23 °F -2 °F (1984)
Degree Days  
Heating Degree Days 26    
Moisture  
Dew Point 19 °F    
Average Humidity 45    
Maximum Humidity 59    
Minimum Humidity 33    
Precipitation  
Precipitation 0.00 in - - ()
Sea Level Pressure  
Sea Level Pressure 30.05 in    
Wind  
Wind Speed 9 mph (SSW)    
Max Wind Speed 14 mph    
Max Gust Speed 18 mph    
Visibility 10 miles    
Events      
Averages and records for this station are not official NWS values.
T = Trace of Precipitation, MM = Missing Value Source: NWS Daily Summary

Daily Weather History Graph

Daily Weather History Graph

Search for Another Location

Airport or City:

Trip Planner

Search our weather history database for the weather conditions in past years. The results will help you decide how hot, cold, wet, or windy it might be!

Date:

Astronomy

Feb. 21, 2014 Rise Set
Actual Time 7:14 AM MST 6:09 PM MST
Civil Twilight 6:46 AM MST 6:37 PM MST
Nautical Twilight 6:14 AM MST 7:09 PM MST
Astronomical Twilight 5:42 AM MST 7:41 PM MST
Moon 12:10 AM MST (2/21) 10:37 AM MST (2/21)
Length of Visible Light 11h 51m
Length of Day
10h 55m
Waning Gibbous, 60% of the Moon is Illuminated
Feb 21
Waning Gibbous
Feb 22
Last Quarter
Mar 1
New
Mar 8
First Quarter
Mar 16
Full

Hourly Weather History & Observations

Time (MST) Temp. Windchill Dew Point Humidity Pressure Visibility Wind Dir Wind Speed Gust Speed Precip Events Conditions
12:53 AM 37.0 °F 29.3 °F 15.1 °F 41% 30.11 in 10.0 mi SSE 11.5 mph - N/A   Overcast
1:53 AM 37.0 °F 30.4 °F 15.1 °F 41% 30.10 in 10.0 mi South 9.2 mph - N/A   Overcast
2:53 AM 37.0 °F 31.6 °F 15.1 °F 41% 30.10 in 10.0 mi South 6.9 mph - N/A   Overcast
3:53 AM 36.0 °F 29.6 °F 17.1 °F 46% 30.10 in 10.0 mi SSW 8.1 mph - N/A   Mostly Cloudy
4:53 AM 33.1 °F 26.1 °F 16.0 °F 50% 30.11 in 10.0 mi SSW 8.1 mph - N/A   Clear
5:53 AM 35.1 °F 29.3 °F 18.0 °F 50% 30.12 in 10.0 mi SSW 6.9 mph - N/A   Overcast
6:53 AM 34.0 °F 28.8 °F 19.9 °F 56% 30.12 in 10.0 mi SSW 5.8 mph - N/A   Overcast
7:53 AM 32.0 °F 25.6 °F 19.0 °F 59% 30.13 in 10.0 mi SSE 6.9 mph - N/A   Clear
8:53 AM 37.9 °F 33.5 °F 21.0 °F 51% 30.12 in 10.0 mi South 5.8 mph - N/A   Clear
9:53 AM 41.0 °F 35.8 °F 21.0 °F 45% 30.11 in 10.0 mi South 8.1 mph - N/A   Clear
10:53 AM 39.9 °F 32.9 °F 21.0 °F 47% 30.12 in 10.0 mi SSW 11.5 mph - N/A   Mostly Cloudy
11:53 AM 43.0 °F 36.4 °F 21.0 °F 42% 30.10 in 10.0 mi West 12.7 mph 18.4 mph N/A   Scattered Clouds
12:53 PM 44.1 °F 38.1 °F 21.0 °F 40% 30.06 in 10.0 mi SW 11.5 mph - N/A   Clear
1:53 PM 44.1 °F 37.4 °F 21.9 °F 42% 30.04 in 10.0 mi SW 13.8 mph - N/A   Scattered Clouds
2:53 PM 46.0 °F 40.6 °F 21.0 °F 37% 30.01 in 10.0 mi WSW 11.5 mph - N/A   Clear
3:53 PM 46.9 °F - 19.0 °F 33% 29.99 in 10.0 mi SW 11.5 mph - N/A   Clear
4:53 PM 46.0 °F 41.9 °F 19.0 °F 34% 29.99 in 10.0 mi SW 8.1 mph - N/A   Mostly Cloudy
5:53 PM 44.1 °F 39.0 °F 19.0 °F 37% 29.97 in 10.0 mi SSW 9.2 mph - N/A   Clear
6:53 PM 42.1 °F 38.4 °F 23.0 °F 47% 29.98 in 10.0 mi South 5.8 mph - N/A   Mostly Cloudy
7:53 PM 39.9 °F 35.1 °F 21.9 °F 49% 29.98 in 10.0 mi South 6.9 mph - N/A   Mostly Cloudy
8:53 PM 39.9 °F 37.8 °F 21.0 °F 47% 29.98 in 10.0 mi West 3.5 mph - N/A   Mostly Cloudy
9:53 PM 37.0 °F - 21.0 °F 52% 29.97 in 10.0 mi Calm Calm - N/A   Clear
10:53 PM 37.0 °F 34.5 °F 19.0 °F 48% 29.96 in 10.0 mi ESE 3.5 mph - N/A   Clear
11:53 PM 36.0 °F - 19.0 °F 50% 29.95 in 10.0 mi Calm Calm - N/A   Mostly Cloudy